Ord, NE

7:30 AM CST on February 11, 2016 (GMT -0600)
Sharp

Weather History for KODX - January, 2013

Change the Weather History Date:

Monday, January 28, 2013

  Actual Average Record
Temperature  
Mean Temperature 32 °F 25 °F  
Max Temperature 41 °F 38 °F 66 °F (2015)
Min Temperature 23 °F 13 °F -7 °F (1997)
Degree Days  
Heating Degree Days 33 40  
Month to date heating degree days 1092 1133  
Since 1 July heating degree days 3821 3857  
Cooling Degree Days 0 0  
Month to date cooling degree days 0 0  
Year to date cooling degree days 0 0  
Moisture  
Dew Point 30 °F    
Average Humidity 93    
Maximum Humidity 100    
Minimum Humidity 85    
Precipitation  
Precipitation 0.00 in 0.02 in 0.13 in (2000)
Month to date precipitation 0.14 0.33  
Year to date precipitation 0.14 0.33  
Sea Level Pressure  
Sea Level Pressure 29.72 in    
Wind  
Wind Speed 4 mph (NE)    
Max Wind Speed 20 mph    
Max Gust Speed 25 mph    
Visibility 2 miles    
Events Fog    
T = Trace of Precipitation, MM = Missing Value Source: NWS Daily Summary

Daily Weather History Graph

Daily Weather History Graph

Search for Another Location

Airport or City:

Trip Planner

Search our weather history database for the weather conditions in past years. The results will help you decide how hot, cold, wet, or windy it might be!

Date:

Astronomy

Jan. 28, 2013 Rise Set
Actual Time 7:51 AM CST 5:46 PM CST
Civil Twilight 7:21 AM CST 6:16 PM CST
Nautical Twilight 6:48 AM CST 6:49 PM CST
Astronomical Twilight 6:15 AM CST 7:22 PM CST
Moon 7:45 PM CST (1/28) 8:15 AM CST (1/28)
Length of Visible Light 10h 54m
Length of Day
9h 55m
Full, 98% of the Moon is Illuminated
Jan 28
Full
Feb 3
Last Quarter
Feb 10
New
Feb 17
First Quarter
Feb 25
Full

Hourly Weather History & Observations

Time (CST) Temp. Windchill Dew Point Humidity Pressure Visibility Wind Dir Wind Speed Gust Speed Precip Events Conditions
12:53 AM 26.1 °F - 24.1 °F 92% 29.83 in 0.2 mi Calm Calm - N/A Fog Light Freezing Fog
1:37 AM 26.6 °F - 24.8 °F 93% 29.76 in 1.0 mi Calm Calm - N/A   Overcast
1:44 AM 26.6 °F - 24.8 °F 93% 29.76 in 0.8 mi Calm Calm - N/A   Overcast
1:48 AM 24.8 °F - 24.8 °F 100% 29.76 in 1.2 mi Calm Calm - N/A   Overcast
1:53 AM 26.1 °F - 24.1 °F 92% 29.81 in 0.8 mi Calm Calm - N/A   Overcast
2:20 AM 24.8 °F - 23.0 °F 93% 29.76 in 0.2 mi Calm Calm - N/A Fog Light Freezing Fog
2:53 AM 23.0 °F - 21.9 °F 96% 29.83 in 0.5 mi Calm Calm - N/A Fog Light Freezing Fog
3:15 AM 23.0 °F - 21.2 °F 93% 29.77 in 0.2 mi Calm Calm - N/A Fog Light Freezing Fog
3:53 AM 25.0 °F - 24.1 °F 96% 29.83 in 0.2 mi Calm Calm - N/A Fog Light Freezing Fog
4:15 AM 24.8 °F - 21.2 °F 86% 29.78 in 1.2 mi Calm Calm - N/A   Overcast
4:33 AM 24.8 °F - 24.8 °F 100% 29.77 in 0.8 mi Calm Calm - N/A   Mist
4:53 AM 24.1 °F - 21.9 °F 91% 29.83 in 0.2 mi Calm Calm - N/A Fog Light Freezing Fog
5:53 AM 24.1 °F - 21.9 °F 91% 29.83 in 0.2 mi Calm Calm - N/A Fog Light Freezing Fog
6:22 AM 24.8 °F - 23.0 °F 93% 29.76 in 0.2 mi Calm Calm - N/A Fog Light Freezing Fog
6:53 AM 25.0 °F - 23.0 °F 92% 29.83 in 0.2 mi Calm Calm - N/A Fog Light Freezing Fog
7:19 AM 24.8 °F - 24.8 °F 100% 29.75 in 0.2 mi Calm Calm - N/A Fog Light Freezing Fog
7:38 AM 24.8 °F - 23.0 °F 93% 29.75 in 0.2 mi Calm Calm - N/A Fog Light Freezing Fog
7:46 AM 24.8 °F 20.5 °F 23.0 °F 93% 29.76 in 0.2 mi NNW 3.5 mph - N/A Fog Light Freezing Fog
7:53 AM 25.0 °F - 23.0 °F 92% 29.83 in 0.2 mi Calm Calm - N/A Fog Light Freezing Fog
8:01 AM 24.8 °F - 23.0 °F 93% 29.75 in 1.2 mi Calm Calm - N/A   Overcast
8:11 AM 24.8 °F - 23.0 °F 93% 29.76 in 0.8 mi Calm Calm - N/A   Overcast
8:31 AM 24.8 °F - 24.8 °F 100% 29.76 in 0.2 mi Calm Calm - N/A Fog Light Freezing Fog
8:38 AM 26.6 °F - 24.8 °F 93% 29.77 in 0.2 mi Calm Calm - N/A Fog Light Freezing Fog
8:45 AM 26.6 °F - 24.8 °F 93% 29.77 in 0.2 mi Calm Calm - N/A Fog Light Freezing Fog
8:53 AM 27.0 °F - 25.0 °F 92% 29.83 in 0.2 mi Calm Calm - N/A Fog Light Freezing Fog
9:21 AM 28.4 °F - 26.6 °F 93% 29.76 in 1.2 mi Calm Calm - N/A   Mostly Cloudy
9:28 AM 28.4 °F - 28.4 °F 100% 29.76 in 2.0 mi Calm Calm - N/A   Scattered Clouds
9:51 AM 30.2 °F - 28.4 °F 93% 29.76 in 3.0 mi Calm Calm - N/A   Clear
9:53 AM 30.0 °F - 28.9 °F 96% 29.83 in 3.0 mi Calm Calm - N/A   Clear
10:16 AM 30.2 °F - 30.2 °F 100% 29.75 in 2.0 mi Calm Calm - N/A   Partly Cloudy
10:30 AM 32.0 °F - 30.2 °F 93% 29.75 in 2.0 mi Calm Calm - N/A   Mostly Cloudy
10:37 AM 32.0 °F - 32.0 °F 100% 29.76 in 2.5 mi Calm Calm - N/A   Mostly Cloudy
10:53 AM 32.0 °F - 32.0 °F 100% 29.81 in 1.8 mi Calm Calm - N/A   Overcast
11:00 AM 33.8 °F - 33.8 °F 100% 29.74 in 0.8 mi Calm Calm - N/A   Overcast
11:53 AM 37.9 °F 34.4 °F 37.9 °F 100% 29.78 in 0.2 mi East 4.6 mph - N/A Fog Fog
12:53 PM 39.9 °F 36.7 °F 39.9 °F 100% 29.73 in 1.5 mi East 4.6 mph - N/A   Overcast
1:02 PM 41.0 °F 39.0 °F 39.2 °F 93% 29.67 in 2.5 mi East 3.5 mph - N/A   Overcast
1:12 PM 41.0 °F 38.0 °F 39.2 °F 93% 29.67 in 3.0 mi ESE 4.6 mph - N/A   Overcast
1:21 PM 41.0 °F 39.0 °F 39.2 °F 93% 29.66 in 3.0 mi East 3.5 mph - N/A   Overcast
1:44 PM 39.2 °F 35.0 °F 39.2 °F 100% 29.66 in 4.0 mi ESE 5.8 mph - N/A   Overcast
1:53 PM 39.9 °F 36.7 °F 39.0 °F 97% 29.70 in 3.0 mi SE 4.6 mph - N/A   Overcast
2:06 PM 39.2 °F 35.9 °F 39.2 °F 100% 29.63 in 2.5 mi East 4.6 mph - N/A   Overcast
2:35 PM 39.2 °F 35.9 °F 39.2 °F 100% 29.62 in 1.5 mi ESE 4.6 mph - N/A   Overcast
2:44 PM 39.2 °F 37.0 °F 39.2 °F 100% 29.62 in 2.0 mi ESE 3.5 mph - N/A   Overcast
2:53 PM 39.9 °F 36.7 °F 39.0 °F 97% 29.68 in 1.8 mi SE 4.6 mph - N/A   Overcast
3:00 PM 39.2 °F 35.9 °F 39.2 °F 100% 29.62 in 1.2 mi ESE 4.6 mph - N/A   Overcast
3:06 PM 39.2 °F 37.0 °F 39.2 °F 100% 29.61 in 0.8 mi East 3.5 mph - N/A   Overcast
3:34 PM 39.2 °F 35.0 °F 39.2 °F 100% 29.61 in 1.0 mi East 5.8 mph - N/A   Overcast
3:53 PM 39.2 °F 37.0 °F 39.2 °F 100% 29.62 in 1.0 mi East 3.5 mph - N/A   Overcast
4:27 PM 37.4 °F 32.8 °F 37.4 °F 100% 29.63 in 1.2 mi ESE 5.8 mph - N/A   Overcast
4:53 PM 37.9 °F - 37.0 °F 97% 29.69 in 1.2 mi Calm Calm - N/A   Overcast
5:11 PM 37.4 °F 34.9 °F 37.4 °F 100% 29.62 in 1.0 mi ESE 3.5 mph - N/A   Overcast
5:26 PM 37.4 °F 32.8 °F 37.4 °F 100% 29.63 in 0.8 mi North 5.8 mph - N/A   Overcast
5:34 PM 37.4 °F 33.8 °F 35.6 °F 93% 29.63 in 1.0 mi NNE 4.6 mph - N/A   Overcast
5:46 PM 35.6 °F 29.2 °F 35.6 °F 100% 29.63 in 1.2 mi NNE 8.1 mph - N/A   Overcast
5:53 PM 36.0 °F 31.1 °F 35.1 °F 97% 29.70 in 1.0 mi NNE 5.8 mph - N/A   Overcast
6:00 PM 35.6 °F 28.6 °F 35.6 °F 100% 29.63 in 1.5 mi NNE 9.2 mph - N/A   Overcast
6:53 PM 35.1 °F 26.9 °F 34.0 °F 96% 29.71 in 2.5 mi North 11.5 mph - 0.00 in   Overcast
7:31 PM 33.8 °F 24.8 °F 32.0 °F 93% 29.63 in 4.0 mi North 12.7 mph - 0.00 in   Overcast
7:48 PM 33.8 °F 25.8 °F 32.0 °F 93% 29.62 in 4.0 mi North 10.4 mph - 0.00 in   Overcast
7:53 PM 34.0 °F 26.0 °F 32.0 °F 92% 29.68 in 4.0 mi North 10.4 mph - 0.00 in   Overcast
8:53 PM 32.0 °F 23.0 °F 30.9 °F 96% 29.68 in 4.0 mi North 11.5 mph - N/A   Overcast
9:53 PM 32.0 °F 21.6 °F 30.0 °F 92% 29.72 in 6.0 mi NW 15.0 mph - N/A   Overcast
10:06 PM 32.0 °F 22.1 °F 28.4 °F 87% 29.65 in 5.0 mi NNW 13.8 mph - N/A   Overcast
10:53 PM 32.0 °F 22.5 °F 28.9 °F 88% 29.72 in 6.0 mi NW 12.7 mph - N/A   Overcast
11:40 PM 30.2 °F 18.9 °F 28.4 °F 93% 29.66 in 5.0 mi NW 16.1 mph - N/A   Overcast
11:53 PM 30.9 °F 19.8 °F 28.9 °F 92% 29.71 in 6.0 mi NNW 16.1 mph - N/A   Overcast